This demonstration page uses our WeatherBlox Daily Observations layout. Learn more.

Left ArrowRight Arrow

Hourly Observations for May 18, 2021

Temp ( °F °C ) Dew Point ( °F °C ) Humidity (%) Winds ( mph kmh ) Pressure ( in mb ) Visibility ( mi km ) Precip ( " mm )
12:56 am 00:56 Cloudy with Mist and Fog 60 15.6 59 15 96 96 E 9 15 29.97 1015 6 10 0.00 0.00
1:26 am 01:26 Cloudy 61 16 59 15 94 94 E 9 15 29.95 1014 7 11 0.00 0.00
1:56 am 01:56 Cloudy with Mist and Fog 60 15.6 59 15 96 96 E 8 13 29.96 1014 5 8 0.00 0.00
2:56 am 02:56 Cloudy with Mist and Fog 60 15.6 59 15 96 96 ESE 8 13 29.94 1014 6 10 0.00 0.00
3:36 am 03:36 Cloudy 61 16 59 15 94 94 ESE 6 9 29.93 1013 7 11 0.00 0.00
3:56 am 03:56 Cloudy with Mist and Fog 60 15.6 59 15 96 96 ESE 7 11 29.94 1014 6 10 0.00 0.00
4:56 am 04:56 Cloudy with Mist and Fog 60 15.6 59 15 96 96 E 7 11 29.93 1013 5 8 0.00 0.00
5:22 am 05:22 Cloudy with Mist and Fog 59 15 59 15 100 100 E 9 15 29.92 1013 3 5 0.00 0.00
5:56 am 05:56 Cloudy with Mist and Fog 59 15 58 14.4 96 96 E 9 15 29.92 1013 4 6 0.00 0.00
6:16 am 06:16 Cloudy with Mist and Fog 59 15 57 14 94 94 ESE 9 15 29.93 1013 2 3 0.00 0.00
6:25 am 06:25 Cloudy with Mist and Fog 59 15 57 14 94 94 ESE 8 13 29.93 1013 2 2 0.00 0.00
6:52 am 06:52 Cloudy with Mist and Fog 59 15 57 14 94 94 ESE 8 13 29.94 1014 1 1 0.00 0.00
6:56 am 06:56 Cloudy with Mist and Fog 59 15 58 14.4 96 96 ESE 8 13 29.94 1014 1 1 0.00 0.00
7:17 am 07:17 Cloudy with Fog 59 15 57 14 94 94 ESE 8 13 29.94 1014 1 1 0.00 0.00
7:33 am 07:33 Cloudy with Fog 57 14 57 14 100 100 ESE 7 11 29.94 1014 0 0 0.00 0.00
7:43 am 07:43 Cloudy with Fog 59 15 57 14 94 94 ESE 9 15 29.94 1014 1 1 0.00 0.00
7:51 am 07:51 Cloudy with Mist and Fog 59 15 57 14 94 94 ESE 8 13 29.94 1014 1 2 0.00 0.00
7:56 am 07:56 Cloudy with Mist and Fog 59 15 58 14.4 96 96 ESE 8 13 29.95 1014 2 2 0.00 0.00
8:06 am 08:06 Cloudy with Mist and Fog 59 15 57 14 94 94 ESE 8 13 29.94 1014 3 4 0.00 0.00
8:15 am 08:15 Cloudy with Mist and Fog 59 15 57 14 94 94 ESE 8 13 29.94 1014 3 5 0.00 0.00
8:42 am 08:42 Cloudy 59 15 57 14 94 94 ESE 8 13 29.93 1013 7 11 0.00 0.00
8:56 am 08:56 Cloudy 59 15 58 14.4 96 96 E 9 15 29.94 1014 9 14 0.00 0.00
9:15 am 09:15 Cloudy 61 16 57 14 88 88 ESE 8 13 29.92 1013 10 16 0.00 0.00
9:56 am 09:56 Cloudy 62 16.7 58 14.4 86 86 E 8 13 29.93 1014 10 16 0.00 0.00
10:09 am 10:09 Cloudy 63 17 57 14 83 83 E 9 15 29.90 1013 10 16 0.00 0.00
10:56 am 10:56 Cloudy 64 17.8 59 15 84 84 ENE 8 13 29.92 1013 10 16 0.00 0.00
11:39 am 11:39 Cloudy 64 18 57 14 78 78 E 9 15 29.90 1013 10 16 0.00 0.00
11:56 am 11:56 Cloudy 65 18.3 59 15 81 81 E 9 15 29.93 1014 10 16 0.00 0.00
12:56 pm 12:56 Cloudy 66 18.9 58 14.4 75 75 ESE 10 17 29.94 1014 10 16 0.00 0.00
1:47 pm 13:47 Cloudy 66 19 57 14 73 73 SE 8 13 29.89 1012 10 16 0.00 0.00
1:56 pm 13:56 Cloudy 66 18.9 58 14.4 75 75 SSE 8 13 29.93 1014 10 16 0.00 0.00
2:41 pm 14:41 Cloudy 66 19 57 14 73 73 SSE 9 15 29.88 1012 10 16 0.00 0.00
2:56 pm 14:56 Cloudy 67 19.4 59 15 76 76 SE 7 11 29.92 1013 9 14 0.00 0.00
3:56 pm 15:56 Cloudy 69 20.6 59 15 70 70 SSE 8 13 29.90 1012 10 16 0.00 0.00
4:03 pm 16:03 Cloudy 70 21 59 15 69 69 SSE 9 15 29.85 1011 10 16 0.00 0.00
4:56 pm 16:56 Mostly Sunny 69 20.6 58 14.4 68 68 S 6 9 29.87 1011 10 16 0.00 0.00
5:56 pm 17:56 Mostly Sunny 69 20.6 60 15.6 73 73 S 6 9 29.87 1011 10 16 0.00 0.00
6:56 pm 18:56 Mostly Sunny 69 20.6 59 15 70 70 S 7 11 29.87 1011 10 16 0.00 0.00
7:56 pm 19:56 Mostly Sunny 68 20 57 13.9 68 68 S 3 6 29.87 1012 10 16 0.00 0.00
8:56 pm 20:56 Mostly Clear 68 20 57 13.9 68 68 Calm 29.87 1012 10 16 0.00 0.00
9:56 pm 21:56 Cloudy 65 18.3 60 15.6 84 84 E 5 7 29.89 1012 10 16 0.00 0.00
10:56 pm 22:56 Mostly Clear 64 17.8 60 15.6 87 87 Calm 29.90 1013 10 16 0.00 0.00
11:56 pm 23:56 Clear 64 17.8 59 15 84 84 Calm 29.89 1012 10 16 0.00 0.00

Powered by AerisWeather